[[{"header":{"parameterUnit":"m.s-1","parameterCategory":1,"la1":30.2991,"la2":30.254,"lo1":-89.0895,"lo2":-89.0444,"dy":0.0017,"dx":0.0017,"nx":28,"ny":28,"refTime":"2026-02-26T03:00:00:Z","depth":0,"parameterNumber":2,"parameterNumberName":"U-component_of_WINDS"},"data":[0,0,0,0,0,0,0,0,0,0,0,0,0,0,0,0,0,0,0,0,0,0,0,0,0,0,0,0,0,0,0,0,0,0,0,0,0,0,0,0,0,0,0,0,0,0,0,0,0,0,0,0,0,0,0,0,0,0,0.5803,0.5804,0,0.5886,0.5887,0.5888,0.589,0.5889,0.5888,0.5887,0.5976,0.598,0.5983,0,0,0,0,0,0,0,0,0,0,0,0,0,0.5651,0.5654,0.5803,0.5804,0.5805,0.5886,0.5887,0.5888,0.589,0.5889,0.5887,0.5886,0.5975,0.5979,0.5983,0,0,0,0,0,0,0,0,0,0,0,0,0,0.5724,0.5655,0.5803,0.5815,0.5817,0.5886,0.5887,0.5889,0.589,0.5889,0.5887,0.5885,0.5974,0.5979,0.5984,0.6047,0,0,0.5999,0.6001,0,0,0,0,0,0,0,0,0.572,0.573,0.5813,0.5815,0.5817,0.5876,0.5867,0.5942,0.589,0.5863,0.5887,0.5885,0.5944,0.5952,0.5971,0.6051,0.6055,0.6,0.6003,0.6005,0.6006,0,0,0,0,0,0,0,0.5715,0.5726,0.5836,0.5814,0.5817,0.5819,0.5827,0.5881,0.5912,0.5865,0.5865,0.5875,0.5945,0.5966,0.5973,0.6056,0.6,0.6004,0.6007,0.6009,0.6196,0.6197,0,0,0,0,0,0,0.5706,0.5722,0.5833,0.5839,0.5763,0.5823,0.5832,0.5859,0.5911,0.5917,0.5876,0.5875,0.5958,0.5967,0.5976,0.6056,0.6005,0.601,0.6013,0.6194,0.6196,0.6198,0,0,0,0,0,0,0.5703,0.5716,0.583,0.578,0.5795,0.5827,0.5857,0.5861,0.5882,0.5919,0.5925,0.5891,0.5957,0.5969,0.603,0.6059,0.6012,0.6016,0.6191,0.6194,0.6197,0.6214,0,0,0,0,0,0,0.5699,0.5715,0.5738,0.5781,0.5798,0.588,0.5858,0.5864,0.589,0.5889,0.5935,0.5941,0.5957,0.6022,0.6035,0.6065,0.602,0.6189,0.6193,0.6196,0.6211,0.6217,0.6223,0,0,0,0,0,0.5693,0.574,0.5739,0.5752,0.5826,0.5882,0.5892,0.5907,0.5892,0.5917,0.5941,0.594,0.6053,0.6028,0.6042,0.6075,0.6187,0.6192,0.6196,0.6209,0.6216,0.6222,0,0,0,0,0,0,0.57,0.5745,0.5745,0.5806,0.584,0.5882,0.5913,0.5914,0.5954,0.5952,0.5971,0.5982,0.6042,0.6065,0.6036,0.614,0.6119,0.6126,0.6124,0.6131,0.6137,0.6131,0.6025,0,0,0,0,0,0.5708,0.5748,0.5786,0.5836,0.5853,0.588,0.5905,0.5914,0.5951,0.5966,0.5994,0.6031,0.6076,0.6104,0.6147,0.6214,0.6226,0.6244,0.6249,0.6254,0.6261,0.6301,0.631,0.6212,0.6212,0.6212,0,0,0.5726,0.5756,0.578,0.5839,0.5866,0.5909,0.5892,0.5938,0.5971,0.5973,0.6032,0.6055,0.6097,0.6162,0.6192,0.6183,0.629,0.6259,0.6263,0.6267,0.6307,0.6316,0.6324,0.6215,0.6215,0.6214,0,0,0.5782,0.5807,0.5853,0.5881,0.5923,0.5941,0.5952,0.5994,0.6009,0.6068,0.6072,0.6112,0.6187,0.6218,0.6244,0.6314,0.6315,0.6327,0.6357,0.6397,0.6405,0.6412,0.6439,0.6449,0.6333,0.6333,0.6333,0,0.58,0.5863,0.5877,0.5923,0.595,0.5953,0.6002,0.6029,0.6083,0.6103,0.609,0.6186,0.6215,0.6289,0.6306,0.6326,0.6342,0.6322,0.6402,0.6409,0.6416,0.6443,0.6453,0.6335,0.6335,0.6334,0.6334,0,0.5884,0.5928,0.596,0.6012,0.6043,0.609,0.6113,0.6143,0.615,0.617,0.6233,0.6267,0.6319,0.6336,0.6344,0.6412,0.6406,0.6397,0.6377,0.6426,0.6452,0.6462,0.6337,0.6336,0.6336,0.6335,0,0,0.5945,0.6005,0.6017,0.6042,0.6089,0.6125,0.6173,0.6222,0.6249,0.6286,0.6329,0.6394,0.6387,0.6417,0.6428,0.6462,0.6519,0.645,0.6452,0.6464,0.66,0.6608,0.6619,0.652,0.6522,0.6523,0.6598,0,0.6008,0.6092,0.6108,0.6183,0.6226,0.6231,0.6274,0.6309,0.6329,0.637,0.6393,0.644,0.6426,0.6444,0.6478,0.6505,0.6547,0.6499,0.6563,0.6565,0.6554,0.6632,0.6639,0.6708,0.6607,0.6609,0.661,0,0.6091,0.6131,0.621,0.6254,0.6273,0.6311,0.6359,0.6397,0.6438,0.645,0.6484,0.6492,0.6546,0.6521,0.6597,0.6564,0.6591,0.6608,0.6612,0.662,0.6592,0.6645,0.673,0.6741,0.6626,0.6624,0.6623,0,0.6132,0.6205,0.6262,0.6283,0.6335,0.6362,0.6386,0.6425,0.6454,0.6497,0.6517,0.6565,0.6592,0.663,0.6652,0.6632,0.6727,0.6704,0.6742,0.6742,0.6763,0.6762,0.6856,0.6777,0.6777,0.6777,0.6776,0,0.6201,0.625,0.6282,0.6317,0.6373,0.6392,0.6447,0.6471,0.6506,0.6548,0.6555,0.6595,0.662,0.6665,0.6682,0.6744,0.6756,0.677,0.6774,0.677,0.6769,0.679,0.6786,0.6779,0.6779,0.6778,0.6778,0,0.6255,0.6278,0.6342,0.6386,0.6399,0.6439,0.6478,0.6514,0.6535,0.6588,0.6602,0.6636,0.6688,0.6714,0.6779,0.6791,0.6862,0.6862,0.6848,0.685,0.6888,0.6885,0.7001,0.7018,0.6925,0.6926,0.6927,0,0.6299,0.6337,0.6385,0.6414,0.6438,0.6483,0.6513,0.6534,0.6566,0.6617,0.6648,0.67,0.6744,0.6828,0.686,0.6911,0.6914,0.6951,0.6922,0.6918,0.6918,0.6916,0.6922,0.6957,0.6958,0.6958,0.6959,0,0.6374,0.6384,0.6427,0.6475,0.6511,0.655,0.6588,0.6611,0.6638,0.6674,0.6728,0.6761,0.6829,0.6882,0.6936,0.6962,0.6967,0.6968,0.698,0.6977,0.6969,0.6977,0.6865,0.6966,0.6965,0.6964,0.6964,0.6964,0.6426,0.6462,0.6502,0.6551,0.6582,0.6618,0.6655,0.6681,0.6725,0.6781,0.6791,0.6849,0.6892,0.6964,0.6993,0.704,0.7032,0.7048,0.7053,0.7057,0.7061,0.6959,0.7049,0.7049,0.7049,0.7049,0.7049,0,0.6505,0.6531,0.6576,0.6629,0.6668,0.6667,0.671,0.6744,0.6794,0.6833,0.6876,0.694,0.6992,0.7028,0.7082,0.7113,0.7117,0.7127,0.7126,0.7133,0.7064,0.7049,0.7124,0.7124,0.7124,0.7124,0.7124,0.7124,0.655,0.661,0.6626,0.6703,0.673,0.6786,0.6811,0.6846,0.6877,0.6947,0.6991,0.7014,0.7053,0.711,0.7159,0.7169,0.719,0.72,0.721,0.7145,0.7137,0.713,0.7117,0.7204,0.7204,0.7276,0.7277,0.7277]},{"header":{"parameterUnit":"m.s-1","parameterCategory":1,"la1":30.2991,"la2":30.254,"lo1":-89.0895,"lo2":-89.0444,"dy":0.0017,"dx":0.0017,"nx":28,"ny":28,"refTime":"2026-02-26T03:00:00:Z","depth":0,"parameterNumber":3,"parameterNumberName":"V-component_of_WINDS"},"data":[0,0,0,0,0,0,0,0,0,0,0,0,0,0,0,0,0,0,0,0,0,0,0,0,0,0,0,0,0,0,0,0,0,0,0,0,0,0,0,0,0,0,0,0,0,0,0,0,0,0,0,0,0,0,0,0,0,0,1.0526,1.0527,0,1.0587,1.0588,1.0589,1.0591,1.059,1.059,1.0589,1.0653,1.0655,1.0658,0,0,0,0,0,0,0,0,0,0,0,0,0,1.0413,1.0415,1.0526,1.0527,1.0528,1.0587,1.0588,1.0589,1.0591,1.059,1.059,1.0589,1.0652,1.0655,1.0658,0,0,0,0,0,0,0,0,0,0,0,0,0,1.0467,1.0416,1.0526,1.0536,1.0538,1.0587,1.0588,1.0589,1.0592,1.059,1.0589,1.0588,1.0651,1.0655,1.0658,1.0703,0,0,1.0669,1.0671,0,0,0,0,0,0,0,0,1.0464,1.0471,1.0534,1.0535,1.0537,1.0581,1.0572,1.0627,1.0592,1.0571,1.0589,1.0588,1.063,1.0635,1.0649,1.0706,1.0708,1.067,1.0672,1.0673,1.0674,0,0,0,0,0,0,0,1.046,1.0469,1.055,1.0535,1.0537,1.0538,1.0544,1.0582,1.0606,1.0573,1.0573,1.058,1.0631,1.0646,1.0651,1.0709,1.067,1.0673,1.0675,1.0676,1.0807,1.0808,0,0,0,0,0,0,1.0454,1.0465,1.0549,1.0552,1.0497,1.0541,1.0548,1.0568,1.0606,1.061,1.0581,1.058,1.064,1.0646,1.0653,1.0709,1.0673,1.0677,1.0679,1.0805,1.0807,1.0808,0,0,0,0,0,0,1.0452,1.0462,1.0546,1.0509,1.052,1.0544,1.0566,1.057,1.0585,1.0612,1.0616,1.0592,1.0639,1.0648,1.0691,1.0711,1.0678,1.0682,1.0804,1.0806,1.0808,1.0819,0,0,0,0,0,0,1.0449,1.0461,1.0477,1.0509,1.0522,1.0582,1.0567,1.0572,1.0591,1.059,1.0623,1.0628,1.0639,1.0685,1.0694,1.0715,1.0684,1.0802,1.0805,1.0807,1.0817,1.0821,1.0825,0,0,0,0,0,1.0444,1.0478,1.0478,1.0488,1.0543,1.0583,1.0591,1.0603,1.0592,1.061,1.0627,1.0627,1.0707,1.0689,1.07,1.0722,1.0801,1.0804,1.0807,1.0816,1.0821,1.0825,0,0,0,0,0,0,1.0449,1.0483,1.0483,1.0528,1.0553,1.0584,1.0606,1.0607,1.0636,1.0634,1.0648,1.0656,1.0699,1.0714,1.0694,1.0767,1.0753,1.0758,1.0756,1.0761,1.0765,1.0761,1.0687,0,0,0,0,0,1.0455,1.0484,1.0512,1.0549,1.0562,1.0582,1.06,1.0607,1.0633,1.0644,1.0664,1.069,1.0722,1.0742,1.0772,1.0819,1.0827,1.0839,1.0843,1.0846,1.0851,1.0878,1.0885,1.0818,1.0818,1.0818,0,0,1.0468,1.049,1.0508,1.0551,1.0571,1.0602,1.059,1.0623,1.0647,1.0649,1.0691,1.0707,1.0737,1.0782,1.0803,1.0797,1.0871,1.085,1.0852,1.0855,1.0882,1.0888,1.0894,1.082,1.082,1.0819,0,0,1.0508,1.0527,1.056,1.0581,1.0611,1.0624,1.0632,1.0663,1.0673,1.0715,1.0718,1.0746,1.0799,1.0821,1.0839,1.0887,1.0888,1.0896,1.0917,1.0944,1.0949,1.0954,1.0972,1.0979,1.09,1.09,1.09,0,1.052,1.0566,1.0577,1.0611,1.063,1.0633,1.0668,1.0687,1.0726,1.0739,1.0731,1.0798,1.0818,1.087,1.0881,1.0895,1.0906,1.0893,1.0947,1.0952,1.0957,1.0975,1.0981,1.0901,1.0901,1.0901,1.0901,0,1.0581,1.0613,1.0637,1.0674,1.0696,1.0729,1.0746,1.0767,1.0772,1.0787,1.083,1.0854,1.089,1.0902,1.0907,1.0954,1.095,1.0944,1.093,1.0964,1.0981,1.0988,1.0903,1.0902,1.0902,1.0902,0,0,1.0627,1.0669,1.0678,1.0695,1.0729,1.0754,1.0788,1.0823,1.0841,1.0867,1.0897,1.0942,1.0937,1.0958,1.0965,1.0988,1.1027,1.098,1.0981,1.099,1.1082,1.1087,1.1095,1.1027,1.1028,1.103,1.108,0,1.0671,1.0732,1.0743,1.0796,1.0826,1.0829,1.0859,1.0884,1.0898,1.0926,1.0941,1.0974,1.0964,1.0977,1.0999,1.1017,1.1046,1.1014,1.1056,1.1058,1.1051,1.1104,1.1109,1.1156,1.1087,1.1088,1.1089,0,1.0732,1.076,1.0816,1.0846,1.086,1.0886,1.0919,1.0946,1.0974,1.0982,1.1005,1.101,1.1047,1.1029,1.1081,1.1058,1.1076,1.1088,1.109,1.1096,1.1076,1.1113,1.1171,1.1178,1.1099,1.1098,1.1097,0,1.0761,1.0813,1.0854,1.0868,1.0904,1.0923,1.0939,1.0965,1.0986,1.1014,1.1028,1.106,1.1079,1.1104,1.1118,1.1104,1.1169,1.1153,1.1178,1.1178,1.1193,1.1192,1.1257,1.1202,1.1202,1.1202,1.1202,0,1.0811,1.0846,1.0867,1.0893,1.0932,1.0944,1.0983,1.0998,1.1022,1.1051,1.1055,1.1082,1.1098,1.1128,1.1139,1.1181,1.1188,1.1197,1.12,1.1198,1.1197,1.1211,1.1209,1.1204,1.1203,1.1203,1.1202,0,1.0852,1.0867,1.0912,1.0942,1.095,1.0978,1.1004,1.1029,1.1043,1.108,1.1089,1.1111,1.1146,1.1162,1.1205,1.1213,1.1261,1.1261,1.1252,1.1253,1.1279,1.1277,1.1356,1.1367,1.1303,1.1304,1.1304,0,1.0883,1.091,1.0943,1.0962,1.0979,1.101,1.1031,1.1044,1.1065,1.1099,1.1121,1.1156,1.1185,1.1241,1.1261,1.1295,1.1296,1.1322,1.1302,1.1299,1.1299,1.1298,1.1301,1.1326,1.1327,1.1327,1.1327,0,1.0938,1.0945,1.0974,1.1007,1.1031,1.1057,1.1083,1.1099,1.1116,1.114,1.1176,1.1199,1.1243,1.1279,1.1314,1.1331,1.1333,1.1333,1.1342,1.134,1.1335,1.134,1.1263,1.1332,1.1332,1.1331,1.1331,1.1331,1.0977,1.1001,1.1028,1.1061,1.1082,1.1106,1.1131,1.1148,1.1178,1.1215,1.1221,1.126,1.1287,1.1334,1.1353,1.1384,1.1378,1.1389,1.1392,1.1395,1.1398,1.1328,1.139,1.139,1.139,1.1389,1.1389,0,1.1034,1.1051,1.1081,1.1117,1.1143,1.1142,1.117,1.1193,1.1226,1.1252,1.128,1.1322,1.1356,1.1379,1.1414,1.1435,1.1437,1.1444,1.1443,1.1448,1.14,1.139,1.1442,1.1442,1.1442,1.1442,1.1442,1.1442,1.1066,1.1108,1.1118,1.117,1.1187,1.1225,1.1242,1.1264,1.1285,1.1331,1.136,1.1374,1.1399,1.1436,1.1468,1.1473,1.1487,1.1495,1.15,1.1456,1.1451,1.1445,1.1437,1.1497,1.1497,1.1546,1.1546,1.1546]}]]